Weather History for College Park, MD

Change the Weather History Date:

Tuesday, January 15, 2013

  Actual Average Record
Temperature  
Mean Temperature 40 °F -  
Max Temperature 42 °F 41 °F 73 °F (1952)
Min Temperature 37 °F 24 °F -2 °F (1964)
Degree Days  
Heating Degree Days 26    
Moisture  
Dew Point 40 °F    
Average Humidity 97    
Maximum Humidity 100    
Minimum Humidity 90    
Precipitation  
Precipitation 0.00 in - - ()
Sea Level Pressure  
Sea Level Pressure 30.28 in    
Wind  
Wind Speed 3 mph (NNE)    
Max Wind Speed 6 mph    
Max Gust Speed -    
Visibility 5 miles    
Events      
Averages and records for this station are not official NWS values.
T = Trace of Precipitation, MM = Missing Value Source: NWS Daily Summary

Daily Weather History Graph

Daily Weather History Graph

Search for Another Location

Airport:

Trip Planner

Search our weather history database for the weather conditions in past years. The results will help you decide how hot, cold, wet, or windy it might be!

Date:

Astronomy

Jan. 15, 2013 Rise Set
Actual Time 7:24 AM EST 5:09 PM EST
Civil Twilight 6:55 AM EST 5:39 PM EST
Nautical Twilight 6:22 AM EST 6:11 PM EST
Astronomical Twilight 5:50 AM EST 6:43 PM EST
Moon 9:32 AM EST (1/15) 9:54 PM EST (1/15)
Length of Visible Light 10h 43m
Length of Day
9h 45m
Waxing Crescent, 19% of the Moon is Illuminated
Jan 15
Waxing Crescent
Jan 18
First Quarter
Jan 26
Full
Feb 3
Last Quarter
Feb 10
New

Hourly Weather History & Observations

Time (EST) Temp. Windchill Dew Point Humidity Pressure Visibility Wind Dir Wind Speed Gust Speed Precip Events Conditions
12:15 AM 42.8 °F 41.1 °F 40.1 °F 90% 30.31 in 10.0 mi North 3.5 mph - N/A   Overcast
12:30 AM 42.8 °F - 40.5 °F 91% 30.29 in 10.0 mi Calm Calm - N/A   Overcast
1:20 AM 42.1 °F - 40.5 °F 94% 30.26 in 5.0 mi Calm Calm - N/A   Overcast
2:00 AM 41.9 °F - 41.5 °F 99% 30.25 in 7.0 mi Calm Calm - N/A   Overcast
3:50 AM 41.9 °F 38.2 °F 41.9 °F 100% 30.28 in 10.0 mi NNW 5.8 mph - N/A   Overcast
4:10 AM 41.9 °F 39.0 °F 41.5 °F 99% 30.27 in 10.0 mi NNW 4.6 mph - N/A   Overcast
4:30 AM 41.9 °F - 41.0 °F 97% 30.25 in 10.0 mi Calm Calm - N/A   Overcast
4:50 AM 41.9 °F 39.0 °F 41.2 °F 97% 30.28 in 10.0 mi NNW 4.6 mph - N/A   Overcast
5:15 AM 41.9 °F - 41.2 °F 97% 30.25 in 10.0 mi Calm Calm - N/A   Overcast
5:35 AM 41.9 °F - 40.6 °F 95% 30.25 in 5.0 mi Calm Calm - N/A   Overcast
5:55 AM 41.9 °F - 41.4 °F 98% 30.25 in 5.0 mi Calm Calm - N/A   Overcast
6:15 AM 41.9 °F - 41.7 °F 99% 30.27 in 5.0 mi Calm Calm - N/A   Overcast
6:40 AM 41.9 °F 40.0 °F 41.5 °F 99% 30.28 in 4.0 mi North 3.5 mph - N/A   Overcast
7:00 AM 41.5 °F 38.6 °F 41.5 °F 100% 30.29 in 2.5 mi North 4.6 mph - N/A   Overcast
8:45 AM 41.4 °F 38.4 °F 41.4 °F 100% 30.35 in 1.8 mi North 4.6 mph - N/A   Overcast
9:05 AM 41.4 °F 38.4 °F 41.4 °F 100% 30.34 in 1.8 mi North 4.6 mph - N/A   Overcast
9:30 AM 41.5 °F 39.6 °F 41.5 °F 100% 30.33 in 2.0 mi NNE 3.5 mph - N/A   Overcast
9:50 AM 41.7 °F 38.8 °F 41.7 °F 100% 30.33 in 2.5 mi North 4.6 mph - N/A   Overcast
10:10 AM 41.9 °F 40.0 °F 41.9 °F 100% 30.35 in 4.0 mi NNW 3.5 mph - N/A   Overcast
10:30 AM 41.9 °F 38.2 °F 41.9 °F 100% 30.35 in 2.0 mi NNW 5.8 mph - N/A   Overcast
10:55 AM 41.9 °F 39.0 °F 41.9 °F 100% 30.34 in 2.0 mi North 4.6 mph - N/A   Overcast
11:15 AM 41.9 °F 39.0 °F 41.9 °F 100% 30.33 in 2.0 mi North 4.6 mph - N/A   Overcast
11:35 AM 42.1 °F 39.2 °F 42.1 °F 100% 30.32 in 2.5 mi North 4.6 mph - N/A   Overcast
11:55 AM 42.1 °F - 42.1 °F 100% 30.30 in 2.5 mi Calm Calm - N/A   Overcast
12:20 PM 42.3 °F 40.5 °F 42.1 °F 99% 30.30 in 3.0 mi North 3.5 mph - N/A   Overcast
12:35 PM 42.3 °F 40.5 °F 42.1 °F 99% 30.30 in 4.0 mi North 3.5 mph - N/A   Overcast
1:00 PM 42.4 °F 39.6 °F 42.1 °F 99% 30.30 in 4.0 mi North 4.6 mph - N/A   Overcast
1:20 PM 42.4 °F 40.7 °F 41.9 °F 98% 30.28 in 4.0 mi ENE 3.5 mph - N/A   Overcast
1:45 PM 42.3 °F 40.5 °F 41.0 °F 95% 30.27 in 5.0 mi NE 3.5 mph - N/A   Overcast
2:05 PM 42.3 °F 39.4 °F 40.8 °F 95% 30.28 in 4.0 mi NE 4.6 mph - N/A   Overcast
2:25 PM 41.5 °F 37.8 °F 41.0 °F 98% 30.25 in 4.0 mi East 5.8 mph - N/A   Overcast
2:45 PM 41.4 °F 37.6 °F 40.6 °F 97% 30.26 in 5.0 mi ENE 5.8 mph - N/A   Overcast
3:10 PM 41.2 °F - 39.7 °F 95% 30.27 in 5.0 mi Calm Calm - N/A   Overcast
3:30 PM 41.4 °F - 40.5 °F 97% 30.26 in 4.0 mi Calm Calm - N/A   Overcast
3:50 PM 41.2 °F - 40.3 °F 97% 30.27 in 4.0 mi Calm Calm - N/A   Overcast
4:10 PM 41.4 °F - 40.1 °F 95% 30.30 in 5.0 mi Calm Calm - N/A   Overcast
4:35 PM 41.5 °F 39.6 °F 40.3 °F 95% 30.28 in 4.0 mi ENE 3.5 mph - N/A   Overcast
4:55 PM 41.4 °F - 39.4 °F 93% 30.27 in 5.0 mi Calm Calm - N/A   Overcast
5:15 PM 41.2 °F 39.2 °F 39.2 °F 93% 30.26 in 7.0 mi NE 3.5 mph - N/A   Overcast
5:35 PM 41.0 °F 37.1 °F 39.4 °F 94% 30.25 in 7.0 mi ENE 5.8 mph - N/A   Overcast
6:00 PM 41.0 °F - 38.8 °F 92% 30.28 in 7.0 mi Calm Calm - N/A   Overcast
6:20 PM 41.0 °F - 38.3 °F 90% 30.28 in 7.0 mi Calm Calm - N/A   Overcast
6:40 PM 41.0 °F - 38.7 °F 91% 30.29 in 7.0 mi Calm Calm - N/A   Overcast
7:00 PM 40.8 °F 38.8 °F 38.7 °F 92% 30.26 in 5.0 mi ENE 3.5 mph - N/A   Overcast
7:25 PM 40.6 °F - 39.2 °F 95% 30.28 in 5.0 mi Calm Calm - N/A   Overcast
7:45 PM 40.5 °F - 39.7 °F 97% 30.27 in 4.0 mi Calm Calm - N/A   Overcast
8:25 PM 40.1 °F - 39.7 °F 99% 30.25 in 4.0 mi Calm Calm - N/A   Overcast
8:50 PM 40.1 °F 38.0 °F 39.2 °F 97% 30.25 in 5.0 mi NNE 3.5 mph - N/A   Overcast
9:10 PM 39.4 °F 36.1 °F 38.8 °F 98% 30.24 in 4.0 mi NNE 4.6 mph - N/A   Overcast
9:30 PM 39.2 °F 35.9 °F 38.7 °F 98% 30.25 in 5.0 mi North 4.6 mph - N/A   Overcast
10:15 PM 38.3 °F 35.9 °F 38.1 °F 99% 30.21 in 4.0 mi NE 3.5 mph - N/A   Overcast
10:35 PM 38.3 °F 35.9 °F 37.9 °F 99% 30.20 in 4.0 mi NE 3.5 mph - N/A   Overcast
10:55 PM 38.3 °F 34.8 °F 38.1 °F 99% 30.20 in 4.0 mi NNE 4.6 mph - N/A   Overcast
11:15 PM 37.9 °F - 37.8 °F 99% 30.20 in 4.0 mi Calm Calm - N/A   Overcast
11:40 PM 37.8 °F - 37.8 °F 100% 30.17 in 3.0 mi Calm Calm - N/A   Overcast